Total_Precipitation_Accumulation
0.53 0.75 0.77 0.65 0.76 0.83 0.71 0.62 0.55 0.42 0.33 0.28 0.24 0.25 0.25 0.22 0.18 0.15 0.13 0.10 0.09 0.09 0.10 0.11 0.14 0.17 0.18 0.18 0.19 0.24 0.29 0.32 0.34 0.42 0.53 0.62 0.72 0.90 1.11 1.17 1.22 1.35 1.37 1.40
0.52 0.54 0.46 0.52 0.63 0.73 0.67 0.51 0.44 0.33 0.23 0.20 0.19 0.23 0.23 0.19 0.17 0.13 0.10 0.08 0.07 0.08 0.08 0.07 0.09 0.12 0.12 0.10 0.12 0.18 0.27 0.36 0.42 0.48 0.62 0.77 1.00 1.11 1.25 1.40 1.39 1.41 1.46 1.49
0.39 0.36 0.37 0.45 0.58 0.63 0.61 0.47 0.34 0.27 0.21 0.19 0.18 0.22 0.21 0.19 0.17 0.15 0.12 0.10 0.09 0.09 0.08 0.06 0.07 0.08 0.10 0.09 0.11 0.18 0.32 0.51 0.72 0.82 1.05 1.33 1.58 1.66 1.58 1.57 1.61 1.59 1.63 1.70
0.47 0.35 0.36 0.45 0.48 0.48 0.51 0.35 0.25 0.22 0.19 0.20 0.14 0.20 0.18 0.19 0.21 0.20 0.18 0.15 0.14 0.14 0.12 0.10 0.10 0.10 0.10 0.12 0.22 0.38 0.62 0.92 1.17 1.32 1.52 1.72 1.83 1.87 1.80 1.81 1.79 1.77 1.69 1.62
0.47 0.35 0.34 0.38 0.37 0.34 0.39 0.30 0.25 0.24 0.18 0.16 0.11 0.14 0.18 0.23 0.29 0.29 0.30 0.29 0.27 0.26 0.20 0.21 0.23 0.24 0.30 0.40 0.59 0.88 1.13 1.38 1.53 1.58 1.68 1.88 2.03 2.19 2.20 2.08 1.93 1.82 1.78 1.70
0.37 0.31 0.33 0.36 0.31 0.28 0.31 0.30 0.30 0.26 0.21 0.21 0.15 0.12 0.22 0.28 0.33 0.37 0.39 0.35 0.32 0.31 0.31 0.36 0.47 0.58 0.72 0.83 1.01 1.22 1.37 1.51 1.51 1.52 1.58 1.71 1.90 2.06 2.08 2.09 2.05 1.92 1.78 1.67
0.34 0.30 0.29 0.31 0.31 0.29 0.30 0.33 0.39 0.36 0.32 0.27 0.17 0.24 0.30 0.27 0.27 0.33 0.36 0.35 0.35 0.35 0.42 0.58 0.73 0.87 0.98 1.09 1.20 1.23 1.23 1.28 1.30 1.32 1.36 1.44 1.50 1.53 1.59 1.70 1.62 1.49 1.36 1.31
0.24 0.27 0.24 0.22 0.22 0.24 0.25 0.23 0.32 0.37 0.32 0.28 0.22 0.40 0.41 0.31 0.26 0.26 0.27 0.33 0.44 0.58 0.68 0.78 0.89 0.97 1.01 1.14 1.21 1.16 1.14 1.13 1.06 1.00 1.05 1.07 1.12 1.17 1.20 1.22 1.17 1.09 1.04 1.01
0.18 0.20 0.17 0.17 0.17 0.20 0.19 0.18 0.20 0.28 0.26 0.25 0.28 0.46 0.45 0.30 0.24 0.23 0.25 0.33 0.48 0.70 0.94 1.09 1.08 0.99 0.90 0.94 1.02 1.01 0.97 0.92 0.84 0.79 0.82 0.85 0.92 0.95 0.93 0.91 0.86 0.84 0.78 0.78
0.16 0.16 0.15 0.17 0.18 0.17 0.14 0.16 0.21 0.31 0.33 0.33 0.36 0.49 0.44 0.33 0.28 0.26 0.31 0.40 0.59 0.80 1.00 1.25 1.38 1.27 1.00 0.80 0.82 0.79 0.77 0.80 0.79 0.75 0.77 0.77 0.70 0.65 0.66 0.69 0.63 0.62 0.67 0.71
0.12 0.13 0.14 0.14 0.14 0.12 0.13 0.17 0.22 0.28 0.29 0.39 0.61 0.72 0.60 0.50 0.44 0.43 0.48 0.54 0.61 0.89 1.17 1.31 1.36 1.23 1.05 0.78 0.69 0.69 0.66 0.70 0.77 0.70 0.72 0.71 0.61 0.49 0.47 0.47 0.45 0.45 0.49 0.55
0.08 0.12 0.12 0.11 0.12 0.13 0.17 0.23 0.30 0.40 0.43 0.42 0.56 0.67 0.53 0.55 0.61 0.56 0.61 0.70 0.72 0.78 0.83 0.85 0.96 0.97 0.91 0.78 0.71 0.75 0.80 0.79 0.72 0.65 0.62 0.58 0.51 0.44 0.43 0.41 0.38 0.40 0.45 0.47
0.06 0.11 0.12 0.12 0.15 0.17 0.30 0.37 0.30 0.39 0.48 0.48 0.60 0.67 0.47 0.49 0.59 0.60 0.67 0.74 0.76 0.71 0.60 0.53 0.64 0.78 0.73 0.66 0.70 0.77 0.91 0.91 0.82 0.70 0.60 0.56 0.52 0.49 0.47 0.42 0.41 0.41 0.48 0.59
0.04 0.08 0.08 0.09 0.13 0.24 0.52 0.62 0.42 0.44 0.56 0.46 0.47 0.52 0.44 0.45 0.52 0.57 0.64 0.69 0.67 0.57 0.47 0.41 0.40 0.42 0.41 0.44 0.47 0.59 0.84 1.03 1.01 0.90 0.77 0.68 0.61 0.54 0.48 0.44 0.43 0.42 0.45 0.51
0.03 0.04 0.04 0.05 0.07 0.15 0.35 0.42 0.32 0.29 0.28 0.32 0.32 0.35 0.45 0.52 0.54 0.55 0.57 0.49 0.40 0.33 0.28 0.24 0.20 0.20 0.22 0.27 0.34 0.45 0.72 0.91 0.93 0.92 0.80 0.66 0.55 0.45 0.43 0.46 0.49 0.46 0.41 0.44
0.01 0.01 0.02 0.03 0.03 0.05 0.09 0.07 0.07 0.09 0.14 0.21 0.26 0.36 0.44 0.46 0.45 0.47 0.47 0.34 0.25 0.21 0.19 0.18 0.16 0.14 0.11 0.11 0.16 0.27 0.46 0.62 0.68 0.74 0.70 0.54 0.48 0.43 0.39 0.42 0.48 0.49 0.39 0.38
0.01 0.01 0.02 0.02 0.02 0.02 0.02 0.02 0.08 0.12 0.14 0.17 0.28 0.42 0.48 0.49 0.55 0.84 0.86 0.54 0.31 0.25 0.22 0.22 0.22 0.19 0.17 0.14 0.14 0.17 0.24 0.33 0.40 0.45 0.45 0.36 0.34 0.41 0.42 0.45 0.44 0.38 0.31 0.34
0.01 0.01 0.02 0.02 0.02 0.03 0.03 0.02 0.09 0.13 0.13 0.13 0.16 0.19 0.24 0.35 0.50 0.67 0.75 0.60 0.40 0.36 0.28 0.24 0.20 0.18 0.15 0.12 0.12 0.13 0.15 0.18 0.20 0.20 0.17 0.14 0.21 0.30 0.32 0.30 0.28 0.23 0.23 0.29
0.01 0.01 0.02 0.02 0.10 0.12 0.02 0.02 0.04 0.06 0.06 0.04 0.05 0.06 0.08 0.12 0.13 0.15 0.20 0.23 0.20 0.16 0.12 0.08 0.05 0.04 0.03 0.03 0.03 0.03 0.02 0.02 0.02 0.02 0.02 0.04 0.05 0.06 0.06 0.06 0.07 0.11 0.15 0.20
0.01 0.01 0.01 0.01 0.04 0.05 0.01 0.00 0.01 0.03 0.06 0.01 0.01 0.01 0.02 0.05 0.09 0.07 0.14 0.09 0.03 0.01 0.01 0.00 0.00 0.00 0.00 0.00 0.00 0.00 0.00 0.00 0.00 0.00 0.00 0.00 0.01 0.01 0.01 0.01 0.01 0.03 0.06 0.09
0.01 0.01 0.00 0.00 0.01 0.01 0.00 0.00 0.00 0.02 0.03 0.00 0.00 0.00 0.00 0.01 0.01 0.02 0.09 0.07 0.00 0.00 0.00 0.00 0.00 0.00 0.00 0.00 0.00 0.00 0.00 0.00 0.00 0.00 0.00 0.00 0.01 0.01 0.01 0.02 0.01 0.01 0.01 0.02
0.00 0.01 0.00 0.00 0.00 0.00 0.00 0.00 0.00 0.00 0.00 0.00 0.00 0.00 0.00 0.00 0.00 0.01 0.04 0.05 0.00 0.00 0.00 0.00 0.00 0.00 0.00 0.00 0.00 0.00 0.00 0.00 0.00 0.00 0.00 0.00 0.01 0.01 0.01 0.03 0.02 0.01 0.01 0.02
0.00 0.00 0.00 0.00 0.00 0.00 0.00 0.00 0.00 0.00 0.00 0.00 0.00 0.00 0.00 0.00 0.00 0.00 0.02 0.06 0.01 0.00 0.00 0.00 0.00 0.00 0.00 0.00 0.00 0.00 0.00 0.00 0.00 0.00 0.01 0.00 0.00 0.01 0.01 0.01 0.01 0.01 0.01 0.02
0.00 0.00 0.00 0.00 0.00 0.00 0.00 0.00 0.00 0.00 0.00 0.00 0.00 0.00 0.00 0.00 0.00 0.00 0.01 0.04 0.02 0.00 0.00 0.00 0.00 0.00 0.00 0.00 0.00 0.00 0.00 0.00 0.00 0.00 0.00 0.00 0.00 0.01 0.01 0.01 0.01 0.01 0.02 0.02
0.00 0.00 0.00 0.00 0.00 0.00 0.00 0.00 0.00 0.00 0.00 0.00 0.00 0.00 0.00 0.00 0.00 0.00 0.00 0.01 0.01 0.00 0.00 0.00 0.00 0.00 0.00 0.00 0.00 0.00 0.00 0.00 0.00 0.00 0.00 0.00 0.01 0.01 0.01 0.01 0.01 0.01 0.01 0.02
0.00 0.00 0.00 0.00 0.00 0.00 0.00 0.00 0.00 0.00 0.00 0.00 0.00 0.00 0.00 0.00 0.00 0.00 0.00 0.00 0.00 0.00 0.00 0.00 0.00 0.00 0.00 0.00 0.00 0.00 0.00 0.00 0.00 0.00 0.00 0.00 0.01 0.01 0.01 0.02 0.02 0.01 0.02 0.03